Location: Saratoga Springs
(43.0831°N, 73.7850°W)
Time: 19:52:55
(UTC-04:00)

Tiros 1 - All Passes

Search period start: 16 April 2024 00:00
Search period end: 26 April 2024 00:00
Orbit: 625 x 657 km, 48.4° (Epoch: 16 April)

Date Brightness Start Highest point End Pass type
(mag) Time Alt. Az. Time Alt. Az. Time Alt. Az.
16 Apr - 01:06:08 10° S 01:09:13 18° SE 01:12:19 10° E night (unlit)
16 Apr - 02:46:07 10° SW 02:50:44 77° SSE 02:55:20 10° ENE visible
16 Apr - 04:28:35 10° W 04:33:02 46° N 04:37:29 10° ENE visible
16 Apr - 06:11:13 10° WNW 06:15:40 48° N 06:20:07 10° E daylight
16 Apr - 07:53:20 10° WNW 07:57:55 70° SSW 08:02:30 10° SE daylight
16 Apr - 09:36:38 10° W 09:39:22 16° SW 09:42:06 10° S daylight
17 Apr - 01:28:48 10° SSW 01:33:02 36° SE 01:37:14 10° ENE visible
17 Apr - 03:10:20 10° WSW 03:14:55 67° NNW 03:19:31 10° ENE visible
17 Apr - 04:53:04 10° WNW 04:57:27 42° N 05:01:51 10° ENE visible
17 Apr - 06:35:25 10° WNW 06:40:00 66° NNE 06:44:34 10° ESE daylight
17 Apr - 08:17:41 10° WNW 08:21:54 36° SW 08:26:07 10° SSE daylight
18 Apr - 00:12:50 10° S 00:15:34 15° SE 00:18:17 10° E night (unlit)
18 Apr - 01:52:24 10° SW 01:57:00 69° SSE 02:01:36 10° ENE visible
18 Apr - 03:34:46 10° W 03:39:15 48° NNW 03:43:43 10° ENE visible
18 Apr - 05:17:26 10° WNW 05:21:52 46° N 05:26:19 10° E visible
18 Apr - 06:59:35 10° WNW 07:04:11 78° SSW 07:08:46 10° ESE daylight
18 Apr - 08:42:35 10° W 08:45:42 18° SW 08:48:49 10° S daylight
19 Apr - 00:35:13 10° SSW 00:39:20 32° SE 00:43:25 10° ENE night (unlit)
19 Apr - 02:16:32 10° WSW 02:21:09 72° NNW 02:25:46 10° ENE visible
19 Apr - 03:59:15 10° WNW 04:03:40 42° N 04:08:03 10° ENE visible
19 Apr - 05:41:40 10° WNW 05:46:13 61° NNE 05:50:46 10° E daylight
19 Apr - 07:23:53 10° WNW 07:28:12 41° SW 07:32:30 10° SSE daylight
19 Apr - 23:19:39 10° SSE 23:21:53 13° SE 23:24:07 10° ESE night (unlit)
20 Apr - 00:58:41 10° SW 01:03:16 61° SSE 01:07:50 10° ENE visible
20 Apr - 02:40:56 10° W 02:45:27 51° NNW 02:49:57 10° ENE visible
20 Apr - 04:23:38 10° WNW 04:28:05 45° N 04:32:29 10° E visible
20 Apr - 06:05:49 10° WNW 06:10:26 86° SSW 06:15:02 10° ESE daylight
20 Apr - 07:48:37 10° W 07:52:01 21° SW 07:55:25 10° S daylight
20 Apr - 23:41:39 10° SSW 23:45:37 28° SE 23:49:34 10° E night (unlit)
21 Apr - 01:22:43 10° WSW 01:27:22 78° NNW 01:32:01 10° ENE visible
21 Apr - 03:05:25 10° WNW 03:09:50 43° N 03:14:14 10° ENE visible
21 Apr - 04:47:53 10° WNW 04:52:26 57° NNE 04:56:57 10° E visible
21 Apr - 06:30:04 10° WNW 06:34:28 47° SW 06:38:52 10° SE daylight
21 Apr - 22:26:41 10° SSE 22:28:12 11° SE 22:29:43 10° ESE night (unlit)
22 Apr - 00:04:57 10° SW 00:09:30 55° SSE 00:14:02 10° ENE night (unlit)
22 Apr - 01:47:05 10° W 01:51:39 53° NNW 01:56:11 10° ENE visible
22 Apr - 03:29:49 10° WNW 03:34:16 44° N 03:38:39 10° ENE visible
22 Apr - 05:12:03 10° WNW 05:16:40 87° NNE 05:21:16 10° ESE visible
22 Apr - 06:54:40 10° W 06:58:19 24° SW 07:01:58 10° S daylight
22 Apr - 22:48:06 10° SSW 22:51:53 25° SE 22:55:39 10° E night (unlit)
23 Apr - 00:28:55 10° WSW 00:33:36 85° NNW 00:38:14 10° ENE visible
23 Apr - 02:11:34 10° WNW 02:16:01 44° N 02:20:26 10° ENE visible
23 Apr - 03:54:05 10° WNW 03:58:37 54° NNE 04:03:08 10° E visible
23 Apr - 05:36:14 10° WNW 05:40:44 53° SW 05:45:11 10° SE daylight
23 Apr - 07:20:54 10° WSW 07:21:59 11° SW 07:23:03 10° SW daylight
23 Apr - 23:11:15 10° SW 23:15:45 48° SE 23:20:14 10° ENE night (unlit)
24 Apr - 00:53:13 10° W 00:57:49 57° NNW 01:02:23 10° ENE visible
24 Apr - 02:35:59 10° WNW 02:40:25 43° N 02:44:49 10° ENE visible
24 Apr - 04:18:14 10° WNW 04:22:52 80° NNE 04:27:28 10° ESE visible
24 Apr - 06:00:44 10° W 06:04:36 27° SW 06:08:27 10° SSE daylight
24 Apr - 21:54:35 10° S 21:58:09 22° SE 22:01:43 10° E night (unlit)
24 Apr - 23:35:06 10° WSW 23:39:47 87° SSE 23:44:27 10° ENE night (unlit)
25 Apr - 01:17:41 10° W 01:22:10 45° N 01:26:36 10° ENE visible
25 Apr - 03:00:16 10° WNW 03:04:47 51° NNE 03:09:17 10° E visible
25 Apr - 04:42:25 10° WNW 04:46:58 60° SSW 04:51:28 10° SE visible
25 Apr - 06:26:17 10° WSW 06:28:17 13° SW 06:30:17 10° SSW daylight
25 Apr - 22:17:33 10° SW 22:21:59 43° SE 22:26:23 10° ENE visible
